GW4332 Weather Reports


time (UTC)temp
F
wind
direction
speed
knots
gust
knots
rain 1hr
in
rain 24hr
in
rain mn
in
humidity
%
barometer
mb
20260901081029 63 241 13.9 18.2 0.00 0.00 0.00 78 1017.9
20260901080030 63 247 13.0 16.5 0.00 0.00 0.00 80 1017.8
20260901075030 63 245 13.0 16.5 0.00 0.00 0.00 80 1017.7
20260901074030 63 233 12.2 15.6 0.00 0.00 0.00 81 1017.7
20260901073030 63 250 13.0 16.5 0.00 0.00 0.00 80 1017.5
20260901072030 63 251 13.0 17.4 0.00 0.00 0.00 80 1017.4
20260901071030 63 246 13.9 18.2 0.00 0.00 0.00 81 1017.4
20260901070030 63 250 14.8 19.1 0.00 0.00 0.00 81 1017.3
20260901065030 64 237 14.8 20.0 0.00 0.00 0.00 82 1017.1
20260901064030 63 248 13.0 16.5 0.00 0.00 0.00 82 1017.1
20260901063030 63 237 13.0 16.5 0.00 0.00 0.00 83 1017.1
20260901062030 63 240 13.0 15.6 0.00 0.00 0.00 84 1016.9
20260901061030 63 241 12.2 16.5 0.00 0.00 0.00 85 1016.8
20260901060030 62 236 9.6 16.5 0.00 0.00 0.00 89 1016.7
20260901055030 61 224 7.8 12.2 0.00 0.00 0.00 90 1016.9
20260901054029 61 209 6.1 11.3 0.00 0.00 0.00 91 1016.7
20260901053038 61 218 6.1 11.3 0.00 0.00 0.00 91 1016.7
20260901052030 60 209 5.2 9.6 0.00 0.00 0.00 91 1016.6
20260901051030 61 212 6.1 9.6 0.00 0.00 0.00 91 1016.5
20260901050030 60 205 5.2 9.6 0.00 0.00 0.00 91 1016.5
20260901045030 60 191 5.2 8.7 0.00 0.00 0.00 90 1016.4
20260901044030 60 189 5.2 9.6 0.00 0.00 0.00 90 1016.4
20260901043030 61 190 5.2 8.7 0.00 0.00 0.00 90 1016.3
20260901042030 61 195 4.3 8.7 0.00 0.00 0.00 89 1016.2
20260901041030 61 199 5.2 8.7 0.00 0.00 0.00 89 1016.2
20260901040030 62 193 5.2 7.8 0.00 0.00 0.00 88 1016.2
20260901035030 62 203 5.2 9.6 0.00 0.00 0.00 87 1016.1
20260901034030 63 209 5.2 8.7 0.00 0.00 0.00 86 1016.1
20260901033030 64 248 9.6 13.9 0.00 0.00 0.00 85 1016.1
20260901032030 64 247 11.3 14.8 0.00 0.00 0.00 86 1015.9
20260901031031 63 253 7.8 14.8 0.00 0.00 0.00 90 1015.8
20260901030030 62 203 3.5 7.8 0.00 0.00 0.00 89 1015.9
20260901025030 62 217 6.1 9.6 0.00 0.00 0.00 89 1015.9
20260901024030 62 205 6.1 9.6 0.00 0.00 0.00 89 1015.9
20260901023030 62 216 5.2 10.4 0.00 0.00 0.00 88 1015.8
20260901022029 63 208 5.2 10.4 0.00 0.00 0.00 87 1015.9
20260901021030 64 213 7.8 13.0 0.00 0.00 0.00 86 1015.9
20260901020030 64 243 8.7 13.0 0.00 0.00 0.00 87 1015.7
20260901015030 64 231 10.4 13.0 0.00 0.00 0.00 87 1015.6
20260901014030 64 242 9.6 13.0 0.00 0.00 0.00 88 1015.5
20260901013030 63 225 7.0 12.2 0.00 0.00 0.00 89 1015.6
20260901012030 62 223 7.8 13.0 0.00 0.00 0.00 89 1015.6
20260901011031 62 218 9.6 13.9 0.00 0.00 0.00 89 1015.6
20260901010030 62 219 7.8 13.0 0.00 0.00 0.00 89 1015.6
20260901005030 62 215 7.0 13.9 0.00 0.00 0.00 88 1015.5
20260901004029 62 207 7.0 13.9 0.00 0.00 0.00 88 1015.5
20260901003030 62 203 7.8 11.3 0.00 0.00 0.00 88 1015.4
20260901002030 62 203 7.0 12.2 0.00 0.00 0.00 87 1015.3
20260901001030 62 203 7.8 11.3 0.00 0.00 0.00 86 1015.3
20260901000030 63 214 7.0 12.2 0.00 0.00 0.00 87 1015.3
20260831235029 63 208 6.1 10.4 0.00 0.00 0.00 87 1015.3
20260831234030 63 206 5.2 7.8 0.00 0.00 0.00 87 1015.2
20260831233030 63 215 5.2 8.7 0.00 0.00 0.00 86 1015.1
20260831232030 63 201 5.2 8.7 0.00 0.00 0.00 86 1015.0
20260831231029 63 200 5.2 8.7 0.00 0.00 0.00 86 1015.1
20260831230030 63 204 5.2 7.8 0.00 0.00 0.00 86 1015.2
20260831225030 63 201 4.3 7.8 0.00 0.00 0.00 86 1015.2
20260831224030 64 208 6.1 9.6 0.00 0.00 0.00 86 1015.1
20260831223030 63 208 6.1 9.6 0.00 0.00 0.00 86 1015.1
20260831222030 64 206 5.2 7.8 0.00 0.00 0.00 85 1015.1
20260831221030 65 218 6.1 11.3 0.00 0.00 0.00 85 1015.1
20260831220030 65 242 10.4 13.9 0.00 0.00 0.15 85 1014.9
20260831215030 65 233 9.6 13.0 0.00 0.00 0.15 85 1014.9
20260831214030 65 245 11.3 14.8 0.00 0.00 0.15 85 1014.8
20260831213030 65 244 10.4 14.8 0.00 0.00 0.15 85 1014.7
20260831212030 65 241 11.3 14.8 0.00 0.00 0.15 85 1014.7
20260831211029 65 244 11.3 14.8 0.00 0.00 0.15 84 1014.5
20260831210030 65 242 11.3 17.4 0.00 0.00 0.15 84 1014.4
20260831205030 65 246 13.0 17.4 0.00 0.00 0.15 84 1014.3
20260831204029 65 246 13.9 18.2 0.00 0.00 0.15 85 1014.3
20260831203030 65 258 15.6 20.0 0.00 0.00 0.15 84 1014.2
20260831202030 65 260 19.1 22.6 0.00 0.00 0.15 84 1014.1
20260831201030 65 252 18.2 22.6 0.00 0.00 0.15 84 1013.9
20260831200030 65 248 20.0 26.1 0.00 0.00 0.15 84 1013.9
20260831195030 65 251 20.9 26.1 0.00 0.00 0.15 84 1013.6
20260831194030 65 246 18.2 24.3 0.00 0.00 0.15 83 1013.4
20260831193030 65 257 19.1 24.3 0.00 0.00 0.15 83 1013.4
20260831192030 65 249 19.1 27.8 0.00 0.00 0.15 83 1013.1
20260831191030 65 252 18.2 24.3 0.00 0.00 0.15 83 1013.2
20260831190030 65 252 20.0 26.1 0.00 0.00 0.15 83 1012.9
20260831185030 65 253 20.9 26.9 0.00 0.00 0.15 83 1012.7
20260831184029 65 256 20.9 26.9 0.00 0.00 0.15 83 1012.6
20260831183030 65 260 21.7 26.9 0.00 0.00 0.15 84 1012.3
20260831182030 65 247 21.7 29.5 0.00 0.00 0.15 84 1012.2
20260831181030 65 240 22.6 27.8 0.00 0.00 0.15 84 1012.0
20260831180030 65 237 20.9 28.7 0.00 0.00 0.15 85 1012.0
20260831175030 64 249 22.6 28.7 0.00 0.00 0.15 85 1011.7
20260831174029 65 237 23.5 33.0 0.00 0.00 0.15 83 1011.4
20260831173033 65 259 26.1 33.9 0.00 0.00 0.15 83 1011.2
20260831172030 65 256 25.2 33.0 0.00 0.00 0.15 81 1011.2
20260831171030 65 255 29.5 36.5 0.00 0.00 0.15 81 1010.9
20260831170030 65 252 29.5 40.8 0.00 0.00 0.15 83 1010.8
20260831165030 65 251 24.3 36.5 0.00 0.00 0.15 81 1010.5
20260831164030 66 246 21.7 29.5 0.00 0.00 0.15 81 1010.8
20260831163030 66 243 22.6 30.4 0.00 0.00 0.15 79 1010.6
20260831162029 66 243 22.6 31.3 0.00 0.00 0.15 80 1010.4
20260831161030 66 257 21.7 31.3 0.00 0.00 0.15 79 1010.1
20260831160030 66 249 21.7 28.7 0.00 0.00 0.15 80 1010.2
20260831155030 65 241 18.2 25.2 0.00 0.00 0.15 82 1010.2
20260831154030 65 250 21.7 32.2 0.00 0.00 0.15 81 1010.1
20260831153030 65 250 22.6 27.8 0.00 0.00 0.15 80 1009.9
20260831152029 65 249 23.5 31.3 0.00 0.00 0.15 78 1009.8
20260831151030 65 257 23.5 30.4 0.00 0.00 0.15 78 1009.7
20260831150030 65 250 20.9 28.7 0.00 0.00 0.15 80 1009.6
20260831145030 64 240 19.1 26.1 0.00 0.00 0.15 82 1009.7
20260831144030 64 246 20.0 26.9 0.00 0.00 0.15 82 1009.6
20260831143030 64 257 20.9 27.8 0.00 0.00 0.15 82 1009.4
20260831142029 64 233 21.7 30.4 0.00 0.00 0.15 81 1009.3
20260831141030 64 239 23.5 28.7 0.00 0.00 0.15 80 1009.0
20260831140030 65 251 24.3 33.0 0.00 0.00 0.15 80 1008.6
20260831135030 64 253 20.9 26.9 0.00 0.00 0.15 82 1008.6
20260831134030 64 258 24.3 32.2 0.00 0.00 0.15 81 1008.6
20260831133030 64 247 22.6 31.3 0.00 0.00 0.15 80 1008.5
20260831132030 65 247 19.1 23.5 0.00 0.00 0.15 80 1008.6
20260831131030 64 240 21.7 27.8 0.00 0.00 0.15 80 1008.4
20260831130030 64 239 22.6 27.8 0.00 0.00 0.15 79 1008.2
20260831125030 64 248 22.6 31.3 0.00 0.00 0.15 80 1008.0
20260831124030 63 250 24.3 33.9 0.00 0.00 0.15 81 1008.0
20260831123029 64 250 19.1 28.7 0.00 0.00 0.15 80 1007.8
20260831122030 64 232 19.1 24.3 0.00 0.00 0.15 81 1007.9
20260831121030 64 238 19.1 29.5 0.00 0.00 0.15 81 1007.6
20260831120030 64 236 20.0 27.8 0.00 0.00 0.15 84 1007.6
20260831115030 63 234 13.0 20.9 0.00 0.00 0.15 88 1007.7
20260831114030 61 233 15.6 26.1 0.00 0.00 0.15 88 1007.8
20260831113033 61 238 20.9 32.2 0.00 0.00 0.14 87 1007.7
20260831112030 62 202 12.2 22.6 0.00 0.00 0.14 87 1007.7
20260831111030 60 210 9.6 19.1 0.00 0.00 0.14 89 1007.7
20260831110030 59 214 9.6 19.1 0.00 0.00 0.14 88 1007.5
20260831105029 59 204 10.4 20.9 0.00 0.00 0.14 88 1007.6
20260831104029 60 230 22.6 33.0 0.00 0.00 0.14 87 1007.5
20260831103030 61 238 26.9 37.4 0.00 0.00 0.12 85 1006.6
20260831102032 65 236 14.8 26.9 0.00 0.00 0.12 78 1007.0
20260831101030 66 212 13.0 22.6 0.00 0.00 0.12 76 1006.9
20260831100030 66 203 13.9 28.7 0.00 0.00 0.12 77 1006.9
20260831095030 65 215 9.6 22.6 0.00 0.00 0.12 80 1007.0
20260831094030 65 206 11.3 25.2 0.00 0.00 0.12 81 1007.0
20260831093030 64 215 13.0 24.3 0.00 0.00 0.12 82 1006.9
20260831092030 64 211 9.6 21.7 0.00 0.00 0.12 84 1006.9
20260831091030 64 194 7.0 18.2 0.00 0.00 0.12 85 1006.6
20260831090030 64 197 7.8 16.5 0.00 0.00 0.11 85 1006.8
20260831085030 63 190 7.0 16.5 0.00 0.00 0.11 86 1007.0
20260831084030 63 197 10.4 20.9 0.00 0.00 0.11 87 1006.9
20260831083030 63 190 7.8 20.9 0.00 0.00 0.11 89 1007.0
20260831082029 62 191 7.0 16.5 0.00 0.00 0.11 90 1007.0